This is the latest recevied weather packets stored in our database for station/object K0NV. If no packets are shown the sender has not sent any weather packets the latest 10 day(s).
| Time | Temp. | Humidity | Pressure | Rain* | Wind** | Luminosity | Snow |
|---|---|---|---|---|---|---|---|
| 1777299435 | 23.89° C | 88% | 1005.3 hPa | 0 mm | - | 191 W/m² | - |
| 1777299132 | 23.33° C | 88% | 1005.5 hPa | 0 mm | - | 352 W/m² | - |
| 1777298829 | 23.33° C | 89% | 1005.7 hPa | 0 mm | - | 321 W/m² | - |
| 1777298525 | 23.33° C | 90% | 1005.8 hPa | 0 mm | - | 288 W/m² | - |
| 1777298222 | 22.78° C | 91% | 1005.6 hPa | 0 mm | - | 266 W/m² | - |
| 1777297916 | 22.78° C | 91% | 1005.8 hPa | 0 mm | - | 175 W/m² | - |
| 1777297609 | 22.78° C | 92% | 1005.9 hPa | 0 mm | - | 274 W/m² | - |
| 1777297305 | 22.22° C | 93% | 1005.6 hPa | 0 mm | - | 184 W/m² | - |
| 1777297002 | 22.22° C | 94% | 1006 hPa | 0 mm | - | 107 W/m² | - |
| 1777296698 | 22.22° C | 95% | 1006 hPa | 0 mm | - | 67 W/m² | - |
| 1777296384 | 22.22° C | 95% | 1005.8 hPa | 0 mm | - | 92 W/m² | - |
| 1777296080 | 22.22° C | 95% | 1005.9 hPa | 0 mm | - | 67 W/m² | - |
| 1777295772 | 22.22° C | 95% | 1005.8 hPa | 0 mm | - | 52 W/m² | - |
| 1777295470 | 22.22° C | 95% | 1005.8 hPa | 0 mm | - | 29 W/m² | - |
| 1777295167 | 22.22° C | 96% | 1005.5 hPa | 0 mm | - | 85 W/m² | - |
| 1777294864 | 21.67° C | 97% | 1005.1 hPa | 0 mm | - | 144 W/m² | - |
| 1777294563 | 21.11° C | 98% | 1005.3 hPa | 0 mm | - | 130 W/m² | - |
| 1777294260 | 21.11° C | 99% | 1005.3 hPa | 0 mm | - | 105 W/m² | - |
| 1777293957 | 21.11° C | 99% | 1005.3 hPa | 0 mm | - | 91 W/m² | - |
| 1777293653 | 20.56° C | 99% | 1005.1 hPa | 0 mm | - | 86 W/m² | - |
| 1777293348 | 20.56° C | 99% | 1005 hPa | 0 mm | - | 80 W/m² | - |
| 1777293044 | 20.56° C | 99% | 1005 hPa | 0 mm | - | 67 W/m² | - |
| 1777292744 | 20.56° C | 99% | 1004.8 hPa | 0 mm | - | 58 W/m² | - |
| 1777292440 | 20° C | 99% | 1004.9 hPa | 0 mm | - | 49 W/m² | - |
| 1777292137 | 20° C | 99% | 1004.9 hPa | 0 mm | - | 43 W/m² | - |
* Rain latest hour (hover to see other rain measurements)
** Current wind speed in m/s (hover to see current wind gust speed)